| time (UTC) | temp F | wind direction | speed knots | gust knots | rain 1hr in | rain 24hr in | rain mn in | humidity % | barometer mb |
| 20260904193803 | 77 | 211 | 6.1 | 11.3 | 0.00 | 0.00 | 0.00 | ||
| 20260904193402 | 77 | 207 | 7.8 | 14.8 | 0.00 | 0.00 | 0.00 | ||
| 20260904193000 | 77 | 199 | 6.1 | 8.7 | 0.00 | 0.00 | 0.00 | ||
| 20260904192551 | 76 | 178 | 4.3 | 7.0 | 0.00 | 0.00 | 0.00 | ||
| 20260904192149 | 76 | 160 | 3.5 | 7.0 | 0.00 | 0.00 | 0.00 | ||
| 20260904191748 | 76 | 164 | 3.5 | 7.0 | 0.00 | 0.00 | 0.00 | ||
| 20260904191347 | 76 | 161 | 3.5 | 5.2 | 0.00 | 0.00 | 0.00 | ||
| 20260904190944 | 75 | 151 | 2.6 | 7.0 | 0.00 | 0.00 | 0.00 | ||
| 20260904190543 | 76 | 156 | 3.5 | 6.1 | 0.00 | 0.00 | 0.00 | ||
| 20260904190142 | 76 | 153 | 4.3 | 6.1 | 0.00 | 0.00 | 0.00 | ||
| 20260904185741 | 77 | 174 | 1.7 | 4.3 | 0.00 | 0.00 | 0.00 | ||
| 20260904185338 | 77 | 185 | 3.5 | 5.2 | 0.00 | 0.00 | 0.00 | ||
| 20260904184937 | 77 | 188 | 2.6 | 7.0 | 0.00 | 0.00 | 0.00 | ||
| 20260904184529 | 77 | 180 | 2.6 | 3.5 | 0.00 | 0.00 | 0.00 | ||
| 20260904184127 | 77 | 180 | 0.9 | 3.5 | 0.00 | 0.00 | 0.00 | ||
| 20260904183726 | 78 | 180 | 2.6 | 5.2 | 0.00 | 0.00 | 0.00 | ||
| 20260904183324 | 78 | 180 | 3.5 | 5.2 | 0.00 | 0.00 | 0.00 | ||
| 20260904182921 | 78 | 189 | 3.5 | 5.2 | 0.00 | 0.00 | 0.00 | ||
| 20260904182520 | 78 | 199 | 4.3 | 5.2 | 0.00 | 0.00 | 0.00 | ||
| 20260904182119 | 78 | 192 | 2.6 | 4.3 | 0.00 | 0.00 | 0.00 | ||
| 20260904181716 | 78 | 195 | 5.2 | 10.4 | 0.00 | 0.00 | 0.00 | ||
| 20260904181315 | 78 | 202 | 2.6 | 4.3 | 0.00 | 0.00 | 0.00 | ||
| 20260904180914 | 78 | 188 | 3.5 | 7.0 | 0.00 | 0.00 | 0.00 | ||
| 20260904180506 | 78 | 201 | 5.2 | 7.0 | 0.00 | 0.00 | 0.00 | ||
| 20260904175702 | 78 | 195 | 5.2 | 7.0 | 0.00 | 0.00 | 0.00 | ||
| 20260904175301 | 78 | 189 | 6.1 | 8.7 | 0.00 | 0.00 | 0.00 | ||
| 20260904174859 | 78 | 185 | 7.0 | 8.7 | 0.00 | 0.00 | 0.00 | ||
| 20260904174457 | 79 | 192 | 6.1 | 8.7 | 0.00 | 0.00 | 0.00 | ||
| 20260904174055 | 79 | 186 | 7.0 | 10.4 | 0.00 | 0.00 | 0.00 | ||
| 20260904173654 | 79 | 185 | 7.0 | 10.4 | 0.00 | 0.00 | 0.00 | ||
| 20260904173252 | 79 | 200 | 7.0 | 10.4 | 0.00 | 0.00 | 0.00 | ||
| 20260904172850 | 79 | 172 | 6.1 | 7.8 | 0.00 | 0.00 | 0.00 | ||
| 20260904172441 | 79 | 185 | 6.1 | 7.8 | 0.00 | 0.00 | 0.00 | ||
| 20260904172039 | 79 | 183 | 7.0 | 8.7 | 0.00 | 0.00 | 0.00 | ||
| 20260904171238 | 79 | 202 | 5.2 | 8.7 | 0.00 | 0.00 | 0.00 | ||
| 20260904170834 | 79 | 202 | 7.8 | 9.6 | 0.00 | 0.00 | 0.00 | ||
| 20260904170434 | 80 | 194 | 8.7 | 14.8 | 0.00 | 0.00 | 0.00 | ||
| 20260904170032 | 79 | 209 | 5.2 | 7.8 | 0.00 | 0.00 | 0.00 | ||
| 20260904165631 | 79 | 205 | 6.1 | 9.6 | 0.00 | 0.00 | 0.00 | ||
| 20260904165229 | 80 | 208 | 6.1 | 9.6 | 0.00 | 0.00 | 0.00 | ||
| 20260904164827 | 80 | 205 | 6.1 | 9.6 | 0.00 | 0.00 | 0.00 | ||
| 20260904164419 | 80 | 215 | 6.1 | 10.4 | 0.00 | 0.00 | 0.00 | ||
| 20260904164017 | 81 | 203 | 5.2 | 8.7 | 0.00 | 0.00 | 0.00 | ||
| 20260904163615 | 82 | 206 | 7.0 | 10.4 | 0.00 | 0.00 | 0.00 | ||
| 20260904163214 | 82 | 217 | 7.8 | 13.9 | 0.00 | 0.00 | 0.00 | ||
| 20260904162812 | 82 | 212 | 8.7 | 12.2 | 0.00 | 0.00 | 0.00 | ||
| 20260904162411 | 81 | 200 | 9.6 | 17.4 | 0.00 | 0.00 | 0.00 | ||
| 20260904162009 | 83 | 205 | 7.8 | 11.3 | 0.00 | 0.00 | 0.00 | ||
| 20260904161607 | 82 | 196 | 8.7 | 15.6 | 0.00 | 0.00 | 0.00 | ||
| 20260904161206 | 81 | 195 | 7.0 | 10.4 | 0.00 | 0.00 | 0.00 | ||
| 20260904160804 | 80 | 212 | 7.0 | 13.0 | 0.00 | 0.00 | 0.00 | ||
| 20260904160356 | 80 | 197 | 7.0 | 11.3 | 0.00 | 0.00 | 0.00 | ||
| 20260904155953 | 80 | 213 | 7.0 | 12.2 | 0.00 | 0.00 | 0.00 | ||
| 20260904155552 | 80 | 197 | 5.2 | 7.8 | 0.00 | 0.00 | 0.00 | ||
| 20260904155151 | 80 | 202 | 8.7 | 13.9 | 0.00 | 0.00 | 0.00 | ||
| 20260904154750 | 79 | 201 | 7.0 | 9.6 | 0.00 | 0.00 | 0.00 | ||
| 20260904154347 | 79 | 203 | 5.2 | 8.7 | 0.00 | 0.00 | 0.00 | ||
| 20260904153945 | 79 | 206 | 6.1 | 8.7 | 0.00 | 0.00 | 0.00 | ||
| 20260904153544 | 79 | 210 | 7.0 | 10.4 | 0.00 | 0.00 | 0.00 | ||
| 20260904153143 | 79 | 224 | 7.0 | 11.3 | 0.00 | 0.00 | 0.00 | ||
| 20260904152740 | 79 | 207 | 7.0 | 13.9 | 0.00 | 0.00 | 0.00 | ||
| 20260904152332 | 79 | 214 | 6.1 | 9.6 | 0.00 | 0.00 | 0.00 | ||
| 20260904151930 | 79 | 208 | 7.8 | 12.2 | 0.00 | 0.00 | 0.00 | ||
| 20260904151530 | 79 | 221 | 7.0 | 12.2 | 0.00 | 0.00 | 0.00 | ||
| 20260904151128 | 79 | 227 | 6.1 | 8.7 | 0.00 | 0.00 | 0.00 | ||
| 20260904150725 | 79 | 225 | 8.7 | 12.2 | 0.00 | 0.00 | 0.00 | ||
| 20260904150325 | 79 | 214 | 8.7 | 17.4 | 0.00 | 0.00 | 0.00 | ||
| 20260904145923 | 79 | 216 | 9.6 | 14.8 | 0.00 | 0.00 | 0.00 | ||
| 20260904145521 | 79 | 216 | 7.8 | 13.0 | 0.00 | 0.00 | 0.00 | ||
| 20260904145119 | 80 | 213 | 7.8 | 12.2 | 0.00 | 0.00 | 0.00 | ||
| 20260904144716 | 80 | 224 | 8.7 | 12.2 | 0.00 | 0.00 | 0.00 | ||
| 20260904144308 | 80 | 230 | 9.6 | 16.5 | 0.00 | 0.00 | 0.00 | ||
| 20260904143907 | 80 | 225 | 9.6 | 16.5 | 0.00 | 0.00 | 0.00 | ||
| 20260904143504 | 80 | 205 | 11.3 | 15.6 | 0.00 | 0.00 | 0.00 | ||
| 20260904143103 | 80 | 231 | 9.6 | 15.6 | 0.00 | 0.00 | 0.00 | ||
| 20260904142701 | 80 | 225 | 9.6 | 13.9 | 0.00 | 0.00 | 0.00 | ||
| 20260904142300 | 81 | 208 | 10.4 | 16.5 | 0.00 | 0.00 | 0.00 | ||
| 20260904141857 | 81 | 207 | 7.8 | 12.2 | 0.00 | 0.00 | 0.00 | ||
| 20260904141456 | 80 | 217 | 7.0 | 13.0 | 0.00 | 0.00 | 0.00 | ||
| 20260904141055 | 80 | 204 | 11.3 | 20.9 | 0.00 | 0.00 | 0.00 | ||
| 20260904140653 | 80 | 222 | 10.4 | 16.5 | 0.00 | 0.00 | 0.00 | ||
| 20260904140245 | 80 | 215 | 12.2 | 19.1 | 0.00 | 0.00 | 0.00 | ||
| 20260904135842 | 80 | 210 | 8.7 | 12.2 | 0.00 | 0.00 | 0.00 | ||
| 20260904135441 | 80 | 206 | 9.6 | 14.8 | 0.00 | 0.00 | 0.00 | ||
| 20260904135040 | 79 | 224 | 7.8 | 13.9 | 0.00 | 0.00 | 0.00 | ||
| 20260904134638 | 79 | 232 | 7.8 | 12.2 | 0.00 | 0.00 | 0.00 | ||
| 20260904134236 | 79 | 232 | 7.8 | 12.2 | 0.00 | 0.00 | 0.00 | ||
| 20260904133834 | 80 | 225 | 9.6 | 22.6 | 0.00 | 0.00 | 0.00 | ||
| 20260904133433 | 80 | 229 | 9.6 | 14.8 | 0.00 | 0.00 | 0.00 | ||
| 20260904133033 | 80 | 226 | 12.2 | 16.5 | 0.00 | 0.00 | 0.00 | ||
| 20260904132629 | 79 | 223 | 10.4 | 14.8 | 0.00 | 0.00 | 0.00 | ||
| 20260904132221 | 79 | 207 | 10.4 | 20.9 | 0.00 | 0.00 | 0.00 | ||
| 20260904131820 | 78 | 214 | 11.3 | 20.9 | 0.00 | 0.00 | 0.00 | ||
| 20260904131419 | 78 | 215 | 8.7 | 15.6 | 0.00 | 0.00 | 0.00 | ||
| 20260904131017 | 78 | 205 | 9.6 | 15.6 | 0.00 | 0.00 | 0.00 | ||
| 20260904130614 | 79 | 212 | 10.4 | 17.4 | 0.00 | 0.00 | 0.00 | ||
| 20260904130213 | 79 | 208 | 8.7 | 14.8 | 0.00 | 0.00 | 0.00 | ||
| 20260904125811 | 79 | 212 | 7.0 | 10.4 | 0.00 | 0.00 | 0.00 | ||
| 20260904125410 | 79 | 224 | 8.7 | 14.8 | 0.00 | 0.00 | 0.00 | ||
| 20260904125008 | 79 | 226 | 9.6 | 14.8 | 0.00 | 0.00 | 0.00 | ||
| 20260904124606 | 79 | 233 | 9.6 | 14.8 | 0.00 | 0.00 | 0.00 | ||
| 20260904124158 | 80 | 213 | 8.7 | 12.2 | 0.00 | 0.00 | 0.00 | ||
| 20260904123756 | 79 | 234 | 7.8 | 12.2 | 0.00 | 0.00 | 0.00 | ||
| 20260904123354 | 80 | 229 | 6.1 | 10.4 | 0.00 | 0.00 | 0.00 | ||
| 20260904122953 | 80 | 236 | 6.1 | 8.7 | 0.00 | 0.00 | 0.00 | ||
| 20260904122551 | 79 | 242 | 6.1 | 8.7 | 0.00 | 0.00 | 0.00 | ||
| 20260904122150 | 79 | 230 | 7.8 | 13.9 | 0.00 | 0.00 | 0.00 | ||
| 20260904121747 | 79 | 238 | 7.8 | 12.2 | 0.00 | 0.00 | 0.00 | ||
| 20260904121346 | 79 | 217 | 7.0 | 11.3 | 0.00 | 0.00 | 0.00 | ||
| 20260904120945 | 78 | 225 | 8.7 | 14.8 | 0.00 | 0.00 | 0.00 | ||
| 20260904120543 | 77 | 245 | 11.3 | 21.7 | 0.00 | 0.00 | 0.00 | ||
| 20260904120134 | 77 | 237 | 11.3 | 18.2 | 0.00 | 0.00 | 0.00 | ||
| 20260904115732 | 78 | 247 | 7.0 | 10.4 | 0.00 | 0.00 | 0.00 | ||
| 20260904115331 | 78 | 248 | 8.7 | 13.9 | 0.00 | 0.00 | 0.00 | ||
| 20260904114930 | 78 | 208 | 10.4 | 17.4 | 0.00 | 0.00 | 0.00 | ||
| 20260904114528 | 77 | 230 | 8.7 | 16.5 | 0.00 | 0.00 | 0.00 | ||
| 20260904114126 | 77 | 224 | 8.7 | 13.9 | 0.00 | 0.00 | 0.00 | ||
| 20260904113724 | 77 | 227 | 10.4 | 18.2 | 0.00 | 0.00 | 0.00 | ||
| 20260904113323 | 77 | 231 | 10.4 | 15.6 | 0.00 | 0.00 | 0.00 | ||
| 20260904112922 | 77 | 217 | 11.3 | 20.0 | 0.00 | 0.00 | 0.00 | ||
| 20260904112519 | 76 | 221 | 8.7 | 12.2 | 0.00 | 0.00 | 0.00 | ||
| 20260904112111 | 76 | 231 | 7.0 | 10.4 | 0.00 | 0.00 | 0.00 | ||
| 20260904111710 | 77 | 229 | 7.8 | 16.5 | 0.00 | 0.00 | 0.00 | ||
| 20260904111309 | 76 | 235 | 10.4 | 15.6 | 0.00 | 0.00 | 0.00 | ||
| 20260904110906 | 76 | 211 | 9.6 | 17.4 | 0.00 | 0.00 | 0.00 | ||
| 20260904110505 | 76 | 226 | 7.8 | 14.8 | 0.00 | 0.00 | 0.00 | ||
| 20260904110104 | 76 | 238 | 7.8 | 12.2 | 0.00 | 0.00 | 0.00 | ||
| 20260904105702 | 76 | 235 | 9.6 | 13.0 | 0.00 | 0.00 | 0.00 | ||
| 20260904105300 | 76 | 231 | 9.6 | 11.3 | 0.00 | 0.00 | 0.00 | ||
| 20260904104859 | 76 | 206 | 8.7 | 14.8 | 0.00 | 0.00 | 0.00 | ||
| 20260904104457 | 76 | 221 | 8.7 | 14.8 | 0.00 | 0.00 | 0.00 | ||
| 20260904104049 | 76 | 220 | 8.7 | 14.8 | 0.00 | 0.00 | 0.00 | ||
| 20260904103647 | 76 | 224 | 7.8 | 11.3 | 0.00 | 0.00 | 0.00 | ||
| 20260904103245 | 76 | 246 | 6.1 | 11.3 | 0.00 | 0.00 | 0.00 | ||
| 20260904102844 | 76 | 247 | 8.7 | 12.2 | 0.00 | 0.00 | 0.00 | ||
| 20260904102442 | 76 | 222 | 5.2 | 8.7 | 0.00 | 0.00 | 0.00 | ||
| 20260904101638 | 75 | 208 | 12.2 | 18.2 | 0.00 | 0.00 | 0.00 | ||
| 20260904100836 | 75 | 226 | 7.8 | 13.0 | 0.00 | 0.00 | 0.00 | ||
| 20260904100442 | 75 | 220 | 7.8 | 16.5 | 0.00 | 0.00 | 0.00 | ||
| 20260904100434 | 75 | 220 | 7.8 | 16.5 | 0.00 | 0.00 | 0.00 | ||
| 20260904100024 | 76 | 223 | 10.4 | 15.6 | 0.00 | 0.00 | 0.00 | ||
| 20260904095222 | 75 | 244 | 7.8 | 13.0 | 0.00 | 0.00 | 0.00 | ||
| 20260904094821 | 75 | 259 | 7.0 | 14.8 | 0.00 | 0.00 | 0.00 | ||
| 20260904094418 | 74 | 250 | 7.8 | 10.4 | 0.00 | 0.00 | 0.00 | ||
| 20260904094017 | 75 | 227 | 6.1 | 11.3 | 0.00 | 0.00 | 0.00 | ||
| 20260904093615 | 74 | 240 | 7.8 | 13.0 | 0.00 | 0.00 | 0.00 | ||
| 20260904093214 | 75 | 229 | 8.7 | 13.9 | 0.00 | 0.00 | 0.00 | ||
| 20260904092813 | 75 | 202 | 9.6 | 15.6 | 0.00 | 0.00 | 0.00 | ||
| 20260904092002 | 75 | 193 | 7.8 | 13.0 | 0.00 | 0.00 | 0.00 | ||
| 20260904091159 | 74 | 223 | 7.0 | 14.8 | 0.00 | 0.00 | 0.00 | ||
| 20260904090757 | 73 | 229 | 5.2 | 9.6 | 0.00 | 0.00 | 0.00 | ||
| 20260904090355 | 73 | 237 | 7.0 | 13.9 | 0.00 | 0.00 | 0.00 | ||
| 20260904085954 | 73 | 224 | 8.7 | 14.8 | 0.00 | 0.00 | 0.00 | ||
| 20260904085552 | 73 | 221 | 7.8 | 12.2 | 0.00 | 0.00 | 0.00 | ||
| 20260904085150 | 73 | 234 | 7.0 | 12.2 | 0.00 | 0.00 | 0.00 | ||
| 20260904084749 | 73 | 216 | 7.8 | 11.3 | 0.00 | 0.00 | 0.00 | ||
| 20260904084348 | 72 | 209 | 8.7 | 12.2 | 0.00 | 0.00 | 0.00 | ||
| 20260904083939 | 73 | 207 | 7.8 | 13.9 | 0.00 | 0.00 | 0.00 | ||
| 20260904083537 | 73 | 214 | 8.7 | 13.9 | 0.00 | 0.00 | 0.00 | ||
| 20260904083136 | 73 | 222 | 8.7 | 14.8 | 0.00 | 0.00 | 0.00 | ||
| 20260904082333 | 72 | 220 | 7.8 | 13.9 | 0.00 | 0.00 | 0.00 | ||
| 20260904081932 | 71 | 248 | 8.7 | 12.2 | 0.00 | 0.00 | 0.00 | ||
| 20260904081529 | 72 | 241 | 5.2 | 9.6 | 0.00 | 0.00 | 0.00 | ||
| 20260904081128 | 71 | 231 | 7.0 | 10.4 | 0.00 | 0.00 | 0.00 | ||
| 20260904080727 | 71 | 218 | 7.0 | 10.4 | 0.00 | 0.00 | 0.00 | ||
| 20260904080325 | 71 | 231 | 7.8 | 13.9 | 0.00 | 0.00 | 0.00 | ||
| 20260904075916 | 71 | 220 | 7.0 | 9.6 | 0.00 | 0.00 | 0.00 | ||
| 20260904075514 | 71 | 228 | 6.1 | 10.4 | 0.00 | 0.00 | 0.00 | ||
| 20260904075113 | 71 | 221 | 6.1 | 10.4 | 0.00 | 0.00 | 0.00 | ||
| 20260904074712 | 71 | 242 | 5.2 | 9.6 | 0.00 | 0.00 | 0.00 | ||
| 20260904074309 | 71 | 230 | 7.8 | 11.3 | 0.00 | 0.00 | 0.00 | ||
| 20260904073908 | 71 | 236 | 7.0 | 9.6 | 0.00 | 0.00 | 0.00 | ||
| 20260904073506 | 71 | 220 | 9.6 | 13.9 | 0.00 | 0.00 | 0.00 | ||
| 20260904073105 | 70 | 258 | 8.7 | 13.0 | 0.00 | 0.00 | 0.00 | ||
| 20260904072702 | 71 | 250 | 8.7 | 13.0 | 0.00 | 0.00 | 0.00 | ||
| 20260904072300 | 71 | 225 | 8.7 | 13.9 | 0.00 | 0.00 | 0.00 | ||
| 20260904071852 | 71 | 229 | 7.8 | 10.4 | 0.00 | 0.00 | 0.00 | ||
| 20260904071449 | 70 | 223 | 7.8 | 12.2 | 0.00 | 0.00 | 0.00 | ||
| 20260904071048 | 71 | 234 | 6.1 | 8.7 | 0.00 | 0.00 | 0.00 | ||
| 20260904070646 | 70 | 257 | 7.0 | 11.3 | 0.00 | 0.00 | 0.00 | ||
| 20260904070244 | 70 | 254 | 7.8 | 10.4 | 0.00 | 0.00 | 0.00 | ||
| 20260904065843 | 70 | 246 | 6.1 | 8.7 | 0.00 | 0.00 | 0.00 | ||
| 20260904065441 | 70 | 249 | 7.8 | 9.6 | 0.00 | 0.00 | 0.00 | ||
| 20260904065039 | 70 | 246 | 4.3 | 10.4 | 0.00 | 0.00 | 0.00 | ||
| 20260904064638 | 70 | 248 | 5.2 | 7.8 | 0.00 | 0.00 | 0.00 | ||
| 20260904063829 | 70 | 225 | 5.2 | 8.7 | 0.00 | 0.00 | 0.00 | ||
| 20260904063426 | 70 | 229 | 7.0 | 10.4 | 0.00 | 0.00 | 0.00 | ||
| 20260904063025 | 70 | 223 | 3.5 | 5.2 | 0.00 | 0.00 | 0.00 | ||
| 20260904062624 | 70 | 216 | 4.3 | 8.7 | 0.00 | 0.00 | 0.00 | ||
| 20260904062222 | 70 | 229 | 5.2 | 8.7 | 0.00 | 0.00 | 0.00 | ||
| 20260904061820 | 70 | 235 | 7.0 | 8.7 | 0.00 | 0.00 | 0.00 | ||
| 20260904061418 | 69 | 218 | 6.1 | 8.7 | 0.00 | 0.00 | 0.00 | ||
| 20260904061017 | 69 | 222 | 4.3 | 6.1 | 0.00 | 0.00 | 0.00 | ||
| 20260904060616 | 69 | 229 | 5.2 | 7.8 | 0.00 | 0.00 | 0.00 | ||
| 20260904060214 | 69 | 230 | 6.1 | 8.7 | 0.00 | 0.00 | 0.00 | ||
| 20260904055805 | 69 | 230 | 6.1 | 7.8 | 0.00 | 0.00 | 0.00 | ||
| 20260904055403 | 69 | 219 | 5.2 | 8.7 | 0.00 | 0.00 | 0.00 | ||
| 20260904055002 | 69 | 218 | 4.3 | 7.8 | 0.00 | 0.00 | 0.00 | ||
| 20260904054601 | 69 | 224 | 6.1 | 8.7 | 0.00 | 0.00 | 0.00 | ||
| 20260904054158 | 68 | 229 | 6.1 | 8.7 | 0.00 | 0.00 | 0.00 | ||
| 20260904053757 | 69 | 225 | 5.2 | 7.8 | 0.00 | 0.00 | 0.00 | ||
| 20260904053355 | 69 | 218 | 4.3 | 7.0 | 0.00 | 0.00 | 0.00 | ||
| 20260904052954 | 69 | 220 | 3.5 | 6.1 | 0.00 | 0.00 | 0.00 | ||
| 20260904052552 | 69 | 221 | 5.2 | 8.7 | 0.00 | 0.00 | 0.00 | ||
| 20260904052150 | 69 | 213 | 2.6 | 4.3 | 0.00 | 0.00 | 0.00 | ||
| 20260904051743 | 69 | 223 | 5.2 | 7.8 | 0.00 | 0.00 | 0.00 | ||
| 20260904051341 | 69 | 223 | 4.3 | 7.8 | 0.00 | 0.00 | 0.00 | ||
| 20260904050938 | 69 | 223 | 5.2 | 9.6 | 0.00 | 0.00 | 0.00 | ||
| 20260904050537 | 69 | 222 | 4.3 | 7.0 | 0.00 | 0.00 | 0.00 | ||
| 20260904050136 | 68 | 220 | 4.3 | 7.8 | 0.00 | 0.00 | 0.00 | ||
| 20260904045333 | 68 | 227 | 7.0 | 10.4 | 0.00 | 0.00 | 0.00 | ||
| 20260904044931 | 68 | 235 | 7.0 | 10.4 | 0.00 | 0.00 | 0.00 | ||
| 20260904044529 | 68 | 225 | 6.1 | 11.3 | 0.00 | 0.00 | 0.00 | ||
| 20260904044128 | 68 | 215 | 6.1 | 9.6 | 0.00 | 0.00 | 0.00 | ||
| 20260904043317 | 68 | 226 | 4.3 | 7.8 | 0.00 | 0.00 | 0.00 | ||
| 20260904042916 | 69 | 215 | 4.3 | 8.7 | 0.00 | 0.00 | 0.00 | ||
| 20260904042515 | 68 | 223 | 4.3 | 8.7 | 0.00 | 0.00 | 0.00 | ||
| 20260904042113 | 68 | 224 | 4.3 | 6.1 | 0.00 | 0.00 | 0.00 | ||
| 20260904041711 | 68 | 234 | 3.5 | 7.0 | 0.00 | 0.00 | 0.00 | ||
| 20260904041309 | 68 | 235 | 3.5 | 5.2 | 0.00 | 0.00 | 0.00 | ||
| 20260904040908 | 68 | 234 | 3.5 | 4.3 | 0.00 | 0.00 | 0.00 | ||
| 20260904040507 | 68 | 242 | 5.2 | 8.7 | 0.00 | 0.00 | 0.00 | ||
| 20260904040104 | 68 | 244 | 4.3 | 6.1 | 0.00 | 0.00 | 0.00 | ||
| 20260904035656 | 67 | 241 | 4.3 | 7.8 | 0.00 | 0.00 | 0.00 | ||
| 20260904035254 | 67 | 248 | 5.2 | 7.8 | 0.00 | 0.00 | 0.00 | ||
| 20260904034853 | 67 | 248 | 5.2 | 7.8 | 0.00 | 0.00 | 0.00 | ||
| 20260904034452 | 68 | 242 | 4.3 | 7.8 | 0.00 | 0.00 | 0.00 | ||
| 20260904034049 | 68 | 236 | 4.3 | 7.0 | 0.00 | 0.00 | 0.00 | ||
| 20260904033648 | 68 | 242 | 4.3 | 7.0 | 0.00 | 0.00 | 0.00 | ||
| 20260904033246 | 68 | 235 | 4.3 | 7.8 | 0.00 | 0.00 | 0.00 | ||
| 20260904032845 | 68 | 234 | 4.3 | 7.0 | 0.00 | 0.00 | 0.00 | ||
| 20260904032443 | 68 | 236 | 4.3 | 7.8 | 0.00 | 0.00 | 0.00 | ||
| 20260904032042 | 68 | 247 | 3.5 | 5.2 | 0.00 | 0.00 | 0.00 | ||
| 20260904031634 | 68 | 222 | 2.6 | 5.2 | 0.00 | 0.00 | 0.00 | ||
| 20260904031232 | 68 | 233 | 4.3 | 7.0 | 0.00 | 0.00 | 0.00 | ||
| 20260904030830 | 68 | 239 | 3.5 | 7.0 | 0.00 | 0.00 | 0.00 | ||
| 20260904030429 | 68 | 249 | 4.3 | 7.8 | 0.00 | 0.00 | 0.00 | ||
| 20260904030027 | 68 | 244 | 5.2 | 8.7 | 0.00 | 0.00 | 0.00 | ||
| 20260904025626 | 68 | 245 | 5.2 | 7.0 | 0.00 | 0.00 | 0.00 | ||
| 20260904025223 | 68 | 250 | 5.2 | 7.0 | 0.00 | 0.00 | 0.00 | ||
| 20260904024822 | 68 | 259 | 3.5 | 5.2 | 0.00 | 0.00 | 0.00 | ||
| 20260904024421 | 68 | 248 | 4.3 | 6.1 | 0.00 | 0.00 | 0.00 | ||
| 20260904024019 | 68 | 249 | 4.3 | 6.1 | 0.00 | 0.00 | 0.00 | ||
| 20260904023611 | 68 | 239 | 5.2 | 7.8 | 0.00 | 0.00 | 0.00 | ||
| 20260904023208 | 68 | 250 | 4.3 | 6.1 | 0.00 | 0.00 | 0.00 | ||
| 20260904022807 | 68 | 248 | 4.3 | 7.0 | 0.00 | 0.00 | 0.00 | ||
| 20260904022406 | 68 | 241 | 5.2 | 7.0 | 0.00 | 0.00 | 0.00 | ||
| 20260904022004 | 68 | 237 | 5.2 | 7.0 | 0.00 | 0.00 | 0.00 | ||
| 20260904021602 | 68 | 238 | 3.5 | 5.2 | 0.00 | 0.00 | 0.00 | ||
| 20260904020759 | 68 | 244 | 4.3 | 6.1 | 0.00 | 0.00 | 0.00 | ||
| 20260904020358 | 68 | 241 | 4.3 | 7.0 | 0.00 | 0.00 | 0.00 | ||
| 20260904015955 | 68 | 243 | 5.2 | 7.8 | 0.00 | 0.00 | 0.00 | ||
| 20260904015547 | 68 | 229 | 6.1 | 8.7 | 0.00 | 0.00 | 0.00 | ||
| 20260904015146 | 68 | 228 | 5.2 | 8.7 | 0.00 | 0.00 | 0.00 | ||
| 20260904014745 | 69 | 232 | 5.2 | 8.7 | 0.00 | 0.00 | 0.00 | ||
| 20260904014342 | 69 | 232 | 4.3 | 7.8 | 0.00 | 0.00 | 0.00 | ||
| 20260904013941 | 69 | 225 | 3.5 | 7.0 | 0.00 | 0.00 | 0.00 | ||
| 20260904013540 | 68 | 234 | 5.2 | 8.7 | 0.00 | 0.00 | 0.00 | ||
| 20260904013138 | 68 | 233 | 5.2 | 7.8 | 0.00 | 0.00 | 0.00 | ||
| 20260904012737 | 68 | 230 | 5.2 | 8.7 | 0.00 | 0.00 | 0.00 | ||
| 20260904012335 | 68 | 237 | 4.3 | 7.8 | 0.00 | 0.00 | 0.00 | ||
| 20260904011933 | 68 | 230 | 5.2 | 7.8 | 0.00 | 0.00 | 0.00 | ||
| 20260904011525 | 68 | 242 | 4.3 | 10.4 | 0.00 | 0.00 | 0.00 | ||
| 20260904011123 | 69 | 238 | 4.3 | 7.8 | 0.00 | 0.00 | 0.00 | ||
| 20260904010721 | 69 | 227 | 4.3 | 7.0 | 0.00 | 0.00 | 0.00 | ||
| 20260904010320 | 69 | 223 | 5.2 | 8.7 | 0.00 | 0.00 | 0.00 | ||
| 20260904005918 | 69 | 229 | 4.3 | 7.8 | 0.00 | 0.00 | 0.00 | ||
| 20260904005517 | 69 | 229 | 6.1 | 11.3 | 0.00 | 0.00 | 0.00 | ||
| 20260904005114 | 69 | 231 | 6.1 | 7.8 | 0.00 | 0.00 | 0.00 | ||
| 20260904004713 | 69 | 241 | 4.3 | 7.0 | 0.00 | 0.00 | 0.00 | ||
| 20260904004312 | 69 | 219 | 4.3 | 7.8 | 0.00 | 0.00 | 0.00 | ||
| 20260904003910 | 69 | 232 | 5.2 | 9.6 | 0.00 | 0.00 | 0.00 | ||
| 20260904003501 | 69 | 220 | 5.2 | 9.6 | 0.00 | 0.00 | 0.00 | ||
| 20260904003059 | 69 | 230 | 4.3 | 7.8 | 0.00 | 0.00 | 0.00 | ||
| 20260904002658 | 69 | 231 | 4.3 | 8.7 | 0.00 | 0.00 | 0.00 | ||
| 20260904002257 | 69 | 213 | 5.2 | 9.6 | 0.00 | 0.00 | 0.00 | ||
| 20260904001855 | 68 | 211 | 4.3 | 11.3 | 0.00 | 0.00 | 0.00 | ||
| 20260904001453 | 69 | 215 | 5.2 | 7.8 | 0.00 | 0.00 | 0.00 | ||
| 20260904001052 | 69 | 226 | 5.2 | 7.8 | 0.00 | 0.00 | 0.00 | ||
| 20260904000650 | 69 | 235 | 4.3 | 7.0 | 0.00 | 0.00 | 0.00 | ||
| 20260904000249 | 69 | 232 | 5.2 | 7.8 | 0.00 | 0.00 | 0.00 | ||
| 20260903235846 | 69 | 233 | 4.3 | 7.0 | 0.00 | 0.00 | 0.00 | ||
| 20260903235437 | 69 | 233 | 4.3 | 7.8 | 0.00 | 0.00 | 0.00 | ||
| 20260903235036 | 69 | 223 | 5.2 | 7.8 | 0.00 | 0.00 | 0.00 | ||
| 20260903234231 | 69 | 214 | 4.3 | 8.7 | 0.00 | 0.00 | 0.00 | ||
| 20260903233830 | 70 | 205 | 5.2 | 10.4 | 0.00 | 0.00 | 0.00 | ||
| 20260903233027 | 70 | 219 | 3.5 | 7.8 | 0.00 | 0.00 | 0.00 | ||
| 20260903232625 | 70 | 220 | 4.3 | 8.7 | 0.00 | 0.00 | 0.00 | ||
| 20260903232224 | 69 | 223 | 4.3 | 7.0 | 0.00 | 0.00 | 0.00 | ||
| 20260903231822 | 69 | 226 | 6.1 | 9.6 | 0.00 | 0.00 | 0.00 | ||
| 20260903231414 | 69 | 234 | 6.1 | 8.7 | 0.00 | 0.00 | 0.00 | ||
| 20260903231012 | 70 | 229 | 5.2 | 7.8 | 0.00 | 0.00 | 0.00 | ||
| 20260903230610 | 69 | 239 | 5.2 | 7.8 | 0.00 | 0.00 | 0.00 | ||
| 20260903230209 | 69 | 229 | 5.2 | 8.7 | 0.00 | 0.00 | 0.00 | ||
| 20260903225807 | 69 | 225 | 4.3 | 7.0 | 0.00 | 0.00 | 0.00 | ||
| 20260903225406 | 69 | 230 | 5.2 | 7.0 | 0.00 | 0.00 | 0.00 | ||
| 20260903225003 | 69 | 229 | 4.3 | 7.8 | 0.00 | 0.00 | 0.00 | ||
| 20260903224602 | 70 | 223 | 2.6 | 7.0 | 0.00 | 0.00 | 0.00 | ||
| 20260903224201 | 69 | 215 | 3.5 | 8.7 | 0.00 | 0.00 | 0.00 | ||
| 20260903223759 | 68 | 188 | 1.7 | 4.3 | 0.00 | 0.00 | 0.00 | ||
| 20260903223350 | 69 | 180 | 1.7 | 3.5 | 0.00 | 0.00 | 0.00 | ||
| 20260903222948 | 68 | 180 | 1.7 | 3.5 | 0.00 | 0.00 | 0.00 | ||
| 20260903222547 | 69 | 188 | 1.7 | 4.3 | 0.00 | 0.00 | 0.00 | ||
| 20260903222146 | 67 | 202 | 0.9 | 1.7 | 0.00 | 0.00 | 0.00 | ||
| 20260903221743 | 67 | 186 | 2.6 | 3.5 | 0.00 | 0.00 | 0.00 | ||
| 20260903221342 | 66 | 168 | 1.7 | 3.5 | 0.00 | 0.00 | 0.00 | ||
| 20260903220940 | 66 | 164 | 1.7 | 2.6 | 0.00 | 0.00 | 0.00 | ||
| 20260903220539 | 66 | 158 | 0.9 | 1.7 | 0.00 | 0.00 | 0.00 | ||
| 20260903220138 | 66 | 157 | 0.9 | 1.7 | 0.00 | 0.00 | 0.00 | ||
| 20260903215327 | 67 | 141 | 1.7 | 2.6 | 0.00 | 0.00 | 0.00 | ||
| 20260903214926 | 67 | 135 | 0.9 | 2.6 | 0.00 | 0.00 | 0.00 | ||
| 20260903214525 | 66 | 139 | 1.7 | 3.5 | 0.00 | 0.00 | 0.00 | ||
| 20260903214123 | 66 | 157 | 2.6 | 3.5 | 0.00 | 0.00 | 0.00 | ||
| 20260903213721 | 66 | 157 | 0.9 | 3.5 | 0.00 | 0.00 | 0.00 | ||
| 20260903213320 | 67 | 157 | 0.9 | 2.6 | 0.00 | 0.00 | 0.00 | ||
| 20260903212918 | 67 | 169 | 2.6 | 4.3 | 0.00 | 0.00 | 0.00 | ||
| 20260903212516 | 66 | 186 | 0.9 | 3.5 | 0.00 | 0.00 | 0.00 | ||
| 20260903212115 | 66 | 180 | 0.9 | 1.7 | 0.00 | 0.00 | 0.00 | ||
| 20260903211713 | 66 | 180 | 0.9 | 1.7 | 0.00 | 0.00 | 0.00 | ||
| 20260903211305 | 66 | 180 | 0.9 | 2.6 | 0.00 | 0.00 | 0.00 | ||
| 20260903210902 | 65 | 180 | 0.9 | 2.6 | 0.00 | 0.00 | 0.00 | ||
| 20260903210501 | 65 | 180 | 0.9 | 1.7 | 0.00 | 0.00 | 0.00 | ||
| 20260903210100 | 66 | 180 | 1.7 | 3.5 | 0.00 | 0.00 | 0.00 | ||
| 20260903205658 | 65 | 180 | 1.7 | 1.7 | 0.00 | 0.00 | 0.00 | ||
| 20260903205257 | 66 | 180 | 1.7 | 3.5 | 0.00 | 0.00 | 0.00 | ||
| 20260903204854 | 66 | 180 | 1.7 | 2.6 | 0.00 | 0.00 | 0.00 | ||
| 20260903204453 | 66 | 180 | 2.6 | 3.5 | 0.00 | 0.00 | 0.00 | ||
| 20260903203650 | 68 | 157 | 1.7 | 3.5 | 0.00 | 0.00 | 0.00 | ||
| 20260903203241 | 68 | 157 | 2.6 | 4.3 | 0.00 | 0.00 | 0.00 | ||
| 20260903202839 | 68 | 180 | 2.6 | 5.2 | 0.00 | 0.00 | 0.00 | ||
| 20260903202438 | 68 | 171 | 2.6 | 4.3 | 0.00 | 0.00 | 0.00 | ||
| 20260903202037 | 68 | 180 | 2.6 | 3.5 | 0.00 | 0.00 | 0.00 | ||
| 20260903201635 | 69 | 180 | 1.7 | 2.6 | 0.00 | 0.00 | 0.00 | ||
| 20260903201234 | 69 | 180 | 2.6 | 3.5 | 0.00 | 0.00 | 0.00 | ||
| 20260903200832 | 70 | 183 | 1.7 | 3.5 | 0.00 | 0.00 | 0.00 | ||
| 20260903200431 | 70 | 202 | 1.7 | 3.5 | 0.00 | 0.00 | 0.00 | ||
| 20260903195627 | 68 | 180 | 2.6 | 3.5 | 0.00 | 0.00 | 0.00 | ||
| 20260903195219 | 69 | 180 | 2.6 | 3.5 | 0.00 | 0.00 | 0.00 | ||
| 20260903194817 | 69 | 185 | 2.6 | 3.5 | 0.00 | 0.00 | 0.00 | ||
| 20260903194416 | 68 | 172 | 1.7 | 3.5 | 0.00 | 0.00 | 0.00 | ||
| 20260903194014 | 68 | 157 | 2.6 | 3.5 | 0.00 | 0.00 | 0.00 |